Date String (YYYY-MM-DD hh:mm:ss) UTC,Instrument flags,Ambient pressure (hPa),Sample flow (lpm),Bypass flow (lpm),Sample temperature (°C),Ambient temperature (°C),ASC tube jacket temperature (°C),LED temperature (°C),Box temperature (°C),Sample RH (%),Span deviation,Mass concentration (μg/m³),Mass concentration (μg/m³),Mass concentration (μg/m³)
DateTimeUTC,F1_M11,P_M11,Q1_M11,Q2_M11,T1_M11,T2_M11,T3_M11,T4_M11,T5_M11,U1_M11,ZSPAN_M11,X2_M11,X0_M11,X1_M11
2022-10-31 13:00:00,,0824.1,4.99,0.00,25.5,23.9,00.0,34.3,27.3,10.2,0000.0,0002.60,0003.93,0002.20
2022-10-31 13:01:00,,0824.2,5.01,0.00,25.5,23.9,00.0,34.3,27.4,10.2,0000.0,0002.60,0003.92,0002.20
2022-10-31 13:02:00,,0824.1,4.99,0.00,25.5,23.9,00.0,34.3,27.4,10.2,0000.0,0002.61,0003.91,0002.20
2022-10-31 13:03:00,,0824.1,4.99,0.00,25.5,23.9,00.0,34.3,27.4,10.2,0000.0,0002.53,0003.85,0002.19
2022-10-31 13:04:00,,0824.2,5.01,0.00,25.5,23.9,00.0,34.3,27.4,10.2,0000.0,0002.52,0003.83,0002.17
2022-10-31 13:05:00,,0824.1,4.97,0.00,25.5,23.9,00.0,34.3,27.4,10.1,0000.0,0002.51,0003.84,0002.18
2022-10-31 13:06:00,,0824.1,5.01,0.00,25.5,23.9,00.0,34.3,27.4,10.1,0000.0,0002.51,0003.85,0002.17
2022-10-31 13:07:00,,0824.1,5.01,0.00,25.5,23.9,00.0,34.3,27.4,10.1,0000.0,0002.54,0004.13,0002.18
2022-10-31 13:08:00,,0824.1,5.01,0.00,25.5,23.9,00.0,34.3,27.4,10.1,0000.0,0002.52,0004.09,0002.18
2022-10-31 13:09:00,,0824.2,4.99,0.00,25.5,23.9,00.0,34.3,27.4,10.0,0000.0,0002.50,0003.67,0002.18
2022-10-31 13:10:00,,0824.2,5.01,0.00,25.5,23.9,00.0,34.3,27.4,10.0,0000.0,0002.50,0003.56,0002.19
2022-10-31 13:11:00,,0824.2,5.01,0.00,25.5,23.9,00.0,34.3,27.4,09.9,0000.0,0002.53,0003.69,0002.20
2022-10-31 13:12:00,,0824.2,4.98,0.00,25.5,23.9,00.0,34.3,27.4,10.0,0000.0,0002.52,0003.67,0002.20
2022-10-31 13:13:00,,0824.3,5.01,0.00,25.5,23.9,00.0,34.3,27.4,09.7,0000.0,0002.54,0003.71,0002.22
2022-10-31 13:14:00,,0824.2,5.00,0.00,25.5,23.8,00.0,34.3,27.4,09.7,0000.0,0002.53,0003.63,0002.22
2022-10-31 13:15:00,,0824.1,4.99,0.00,25.5,23.8,00.0,34.3,27.3,09.9,0000.0,0002.55,0003.63,0002.23
2022-10-31 13:16:00,,0824.1,5.01,0.00,25.5,23.8,00.0,34.3,27.3,09.9,0000.0,0002.59,0003.76,0002.25
2022-10-31 13:17:00,,0824.1,4.98,0.00,25.5,23.8,00.0,34.3,27.3,09.9,0000.0,0002.59,0003.81,0002.24
2022-10-31 13:18:00,,0824.1,5.00,0.00,25.4,23.8,00.0,34.3,27.3,09.9,0000.0,0002.57,0003.59,0002.23
2022-10-31 13:19:00,,0824.2,5.00,0.00,25.4,23.8,00.0,34.3,27.3,09.8,0000.0,0002.56,0003.56,0002.21
2022-10-31 13:20:00,,0824.2,5.00,0.00,25.4,23.8,00.0,34.3,27.3,09.7,0000.0,0002.57,0003.70,0002.21
2022-10-31 13:21:00,,0824.2,5.00,0.00,25.4,23.7,00.0,34.3,27.3,09.5,0000.0,0002.56,0003.68,0002.20
2022-10-31 13:22:00,,0824.2,4.99,0.00,25.4,23.7,00.0,34.3,27.3,09.5,0000.0,0002.55,0003.55,0002.18
2022-10-31 13:23:00,,0824.3,5.01,0.00,25.4,23.7,00.0,34.3,27.2,09.9,0000.0,0002.51,0003.50,0002.17
2022-10-31 13:24:00,,0824.2,5.01,0.00,25.4,23.7,00.0,34.3,27.2,09.8,0000.0,0002.47,0003.40,0002.14
2022-10-31 13:25:00,,0824.2,4.99,0.00,25.4,23.6,00.0,34.3,27.2,09.9,0000.0,0002.50,0003.49,0002.13
2022-10-31 13:26:00,,0824.2,5.01,0.00,25.3,23.6,00.0,34.3,27.2,10.0,0000.0,0002.47,0003.44,0002.13
2022-10-31 13:27:00,,0824.2,4.98,0.00,25.3,23.6,00.0,34.3,27.2,10.0,0000.0,0002.44,0003.34,0002.11
2022-10-31 13:28:00,,0824.2,5.01,0.00,25.3,23.7,00.0,34.2,27.2,10.1,0000.0,0002.46,0003.31,0002.12
2022-10-31 13:29:00,,0824.3,5.00,0.00,25.3,23.7,00.0,34.2,27.1,10.3,0000.0,0002.46,0003.30,0002.13
2022-10-31 13:30:00,,0824.2,4.99,0.00,25.3,23.7,00.0,34.2,27.1,10.3,0000.0,0002.46,0003.35,0002.13
2022-10-31 13:31:00,,0824.2,5.01,0.00,25.3,23.7,00.0,34.2,27.2,10.4,0000.0,0002.45,0003.69,0002.14
2022-10-31 13:32:00,,0824.3,5.01,0.00,25.3,23.7,00.0,34.2,27.2,10.5,0000.0,0002.41,0003.58,0002.14
2022-10-31 13:33:00,,0824.3,4.99,0.00,25.3,23.7,00.0,34.2,27.2,10.5,0000.0,0002.40,0003.55,0002.15
2022-10-31 13:34:00,,0824.3,5.01,0.00,25.3,23.7,00.0,34.2,27.1,10.5,0000.0,0002.41,0003.55,0002.16
2022-10-31 13:35:00,,0824.3,4.98,0.00,25.3,23.7,00.0,34.2,27.1,10.3,0000.0,0002.41,0003.54,0002.17
2022-10-31 13:36:00,,0824.3,5.00,0.00,25.3,23.7,00.0,34.2,27.1,10.3,0000.0,0002.40,0003.80,0002.16
2022-10-31 13:37:00,,0824.3,4.99,0.00,25.3,23.7,00.0,34.2,27.1,10.5,0000.0,0002.43,0004.02,0002.16
2022-10-31 13:38:00,,0824.3,5.01,0.00,25.3,23.7,00.0,34.2,27.1,10.5,0000.0,0002.41,0004.26,0002.16
2022-10-31 13:39:00,,0824.3,4.99,0.00,25.3,23.7,00.0,34.2,27.1,10.5,0000.0,0002.41,0004.44,0002.16
2022-10-31 13:40:00,,0824.3,5.00,0.00,25.3,23.6,00.0,34.2,27.0,10.5,0000.0,0002.41,0004.50,0002.18
2022-10-31 13:41:00,,0824.3,5.01,0.00,25.3,23.6,00.0,34.2,27.0,10.4,0000.0,0002.41,0004.58,0002.18
2022-10-31 13:42:00,,0824.3,4.99,0.00,25.3,23.6,00.0,34.2,27.1,10.3,0000.0,0002.41,0004.15,0002.17
2022-10-31 13:43:00,,0824.3,5.01,0.00,25.3,23.6,00.0,34.2,27.1,10.3,0000.0,0002.45,0004.19,0002.18
2022-10-31 13:44:00,,0824.2,4.98,0.00,25.3,23.6,00.0,34.2,27.0,10.4,0000.0,0002.46,0004.21,0002.19
2022-10-31 13:45:00,,0824.3,5.00,0.00,25.3,23.7,00.0,34.2,27.1,10.4,0000.0,0002.48,0004.34,0002.17
2022-10-31 13:46:00,,0824.3,5.01,0.00,25.3,23.7,00.0,34.2,27.1,10.4,0000.0,0002.53,0004.50,0002.17
2022-10-31 13:47:00,,0824.3,5.01,0.00,25.3,23.7,00.0,34.1,27.1,10.4,0000.0,0002.49,0004.13,0002.17
2022-10-31 13:48:00,,0824.4,4.99,0.00,25.3,23.7,00.0,34.1,27.1,10.4,0000.0,0002.50,0003.95,0002.20
2022-10-31 13:49:00,,0824.3,5.01,0.00,25.3,23.7,00.0,34.1,27.1,10.4,0000.0,0002.53,0003.76,0002.21
2022-10-31 13:50:00,,0824.4,4.98,0.00,25.3,23.7,00.0,34.1,27.1,10.4,0000.0,0002.56,0003.71,0002.24
2022-10-31 13:51:00,,0824.4,5.01,0.00,25.3,23.7,00.0,34.1,27.1,10.4,0000.0,0002.60,0003.69,0002.27
2022-10-31 13:52:00,,0824.4,5.01,0.00,25.3,23.7,00.0,34.1,27.1,10.4,0000.0,0002.66,0003.67,0002.33
2022-10-31 13:53:00,,0824.4,4.98,0.00,25.3,23.7,00.0,34.1,27.1,10.4,0000.0,0002.72,0003.68,0002.40
2022-10-31 13:54:00,,0824.4,5.01,0.00,25.3,23.7,00.0,34.1,27.2,10.3,0000.0,0002.86,0003.83,0002.53
2022-10-31 13:55:00,,0824.4,4.99,0.00,25.3,23.7,00.0,34.1,27.2,10.3,0000.0,0003.04,0004.07,0002.70
2022-10-31 13:56:00,,0824.4,5.00,0.00,25.3,23.7,00.0,34.1,27.2,10.2,0000.0,0003.19,0004.34,0002.90
2022-10-31 13:57:00,,0824.5,5.01,0.00,25.3,23.7,00.0,34.1,27.2,10.2,0000.0,0003.31,0004.63,0003.11
2022-10-31 13:58:00,,0824.5,5.01,0.00,25.3,23.7,00.0,34.1,27.2,10.2,0000.0,0003.48,0006.25,0003.25
2022-10-31 13:59:00,,0824.5,4.98,0.00,25.3,23.7,00.0,34.1,27.2,10.2,0000.0,0003.61,0006.98,0003.38
